User: anonymous   Login
Location: Unspecified
(0.0000°N, 0.0000°E)
Time: 09:19:17
(UTC+00:00)
Language:

Gonets-D1 - Orbit

View from above orbital plane
View from above orbital plane
View from above satellite
View from above satellite

Ground track
Ground track

The orbit data is extracted from the following two-line orbital elements,

1 23787U 96009A   17269.10233208  .00000047  00000-0  19620-3 0  9997
2 23787  82.5800 178.9003 0011793  80.9720 279.2699 12.64031697996767
Epoch (UTC): 26 September 2017 02:27:21
Eccentricity: 0.0011793
inclination: 82.5800°
perigee height: 1397 km
apogee height: 1415 km
right ascension of ascending node: 178.9003°
argument of perigee: 80.9720°
revolutions per day: 12.64031697
mean anomaly at epoch: 279.2699°
orbit number at epoch: 99676

The dashed part of the orbit path shows where the satellite is in the earth's shadow,  

DLR